Simultaneous Nadir Overpasses (SNOs) Predictions

Prediction of SNOs between GOES-15 and TERRA Satellite Orbit:

Table of predicted SNOs for the next 14.0 days since TLE Epoch: 4/20/2024
Index Date Time (GOES-15) GOES-15 Lat,Lon TERRA Lat,Lon Distance(km) Time Diff (sec)
1 04/21/2024 17:33:10 0.13, 61.30 0.66, 63.87 292.00 80
2 04/22/2024 05:53:09 -0.13, 61.34 0.33, 59.01 265.18 80
3 04/24/2024 05:38:38 -0.14, 61.37 -0.49, 63.16 202.62 80
4 04/24/2024 17:58:46 0.14, 61.34 -0.49, 58.26 349.73 80
5 04/26/2024 17:38:54 0.14, 61.37 0.33, 62.41 117.47 80
6 04/27/2024 05:58:52 -0.14, 61.42 0.67, 57.55 440.01 80
7 04/29/2024 05:44:19 -0.15, 61.47 -0.17, 61.71 26.88 80
8 05/01/2024 05:27:06 -0.16, 61.51 -1.08, 65.85 493.31 80
9 05/01/2024 17:47:13 0.16, 61.48 0.08, 60.96 59.19 80
10 05/03/2024 17:27:18 0.16, 61.54 0.93, 65.12 407.90 80
